Location: Poprad
(49.0500°N, 20.3000°E)
Time: 19:36:40
(UTC+02:00)

CAS-6 - Pass Details

Date: 22 April 2024
Orbit: 607 x 628 km, 97.8° (Epoch: 21 May)

Event Time Altitude Azimuth Distance (km) Brightness Sun altitude
Exits shadow 23:10:25 49° 264° (W) 803 ? -25.4°
Drops below altitude 10° 23:14:33 10° 336° (NNW) 1,990 ? -25.7°
Sets 23:16:48 0° 342° (NNW) 2,897 ? -25.9°
